San Francisco, CA

6:56 AM PST on February 19, 2017 (GMT -0800)
San Francisco International

Weather History for KSFO - June, 2014

Change the Weather History Date:

Saturday, June 7, 2014

  Actual Average Record
Temperature  
Mean Temperature 62 °F 62 °F  
Max Temperature 70 °F 70 °F 89 °F (1979)
Min Temperature 53 °F 53 °F 45 °F (1954)
Degree Days  
Heating Degree Days 3 4  
Month to date heating degree days 25 28  
Since 1 June heating degree days 25 28  
Since 1 July heating degree days 1986 2576  
Cooling Degree Days 0 1  
Month to date cooling degree days 0 4  
Year to date cooling degree days 63 23  
Since 1 June cooling degree days 0 4  
Growing Degree Days 12 (Base 50)    
Moisture  
Dew Point 52 °F    
Average Humidity 74    
Maximum Humidity 93    
Minimum Humidity 55    
Precipitation  
Precipitation 0.00 in 0.01 in 0.12 in (2000)
Month to date precipitation 0.00 0.05  
Year to date precipitation 7.31 13.02  
Since 1 July precipitation 8.80  
Sea Level Pressure  
Sea Level Pressure 29.82 in    
Wind  
Wind Speed 10 mph (WNW)    
Max Wind Speed 24 mph    
Max Gust Speed 29 mph    
Visibility 10 miles    
Events      
T = Trace of Precipitation, MM = Missing Value Source: NWS Daily Summary

Daily Weather History Graph

Daily Weather History Graph

Search for Another Location

Airport or City:

Trip Planner

Search our weather history database for the weather conditions in past years. The results will help you decide how hot, cold, wet, or windy it might be!

Date:

Astronomy

Jun. 07, 2014 Rise Set
Actual Time 5:48 AM PDT 8:29 PM PDT
Civil Twilight 5:17 AM PDT 8:59 PM PDT
Nautical Twilight 4:38 AM PDT 9:38 PM PDT
Astronomical Twilight 3:55 AM PDT 10:22 PM PDT
Moon 2:57 PM PDT (6/7) 2:06 AM PDT (6/7)
Length of Visible Light 15h 42m
Length of Day
14h 41m
Waxing Gibbous, 69% of the Moon is Illuminated
Jun 7
Waxing Gibbous
Jun 12
Full
Jun 19
Last Quarter
Jun 27
New
Jul 5
First Quarter

Hourly Weather History & Observations

Time (PDT) Temp. Dew Point Humidity Pressure Visibility Wind Dir Wind Speed Gust Speed Precip Events Conditions
12:56 AM 54.0 °F 52.0 °F 93% 29.84 in 10.0 mi WNW 10.4 mph - N/A   Partly Cloudy
1:34 AM 55.4 °F 51.8 °F 88% 29.84 in 10.0 mi WNW 5.8 mph - N/A   Mostly Cloudy
1:56 AM 55.0 °F 52.0 °F 89% 29.84 in 10.0 mi WNW 5.8 mph - N/A   Mostly Cloudy
2:47 AM 53.6 °F 51.8 °F 94% 29.84 in 10.0 mi WNW 6.9 mph - N/A   Partly Cloudy
2:56 AM 54.0 °F 51.1 °F 90% 29.84 in 10.0 mi WNW 5.8 mph - N/A   Clear
3:56 AM 53.1 °F 51.1 °F 93% 29.83 in 10.0 mi WNW 5.8 mph - N/A   Partly Cloudy
4:52 AM 53.6 °F 50.0 °F 88% 29.83 in 10.0 mi WNW 5.8 mph - N/A   Mostly Cloudy
4:56 AM 53.1 °F 51.1 °F 93% 29.83 in 10.0 mi WNW 4.6 mph - N/A   Mostly Cloudy
5:56 AM 54.0 °F 51.1 °F 90% 29.84 in 10.0 mi West 4.6 mph - N/A   Mostly Cloudy
6:56 AM 54.0 °F 50.0 °F 86% 29.85 in 10.0 mi West 4.6 mph - N/A   Scattered Clouds
7:56 AM 57.0 °F 50.0 °F 77% 29.85 in 10.0 mi Calm Calm - N/A   Scattered Clouds
8:56 AM 60.1 °F 52.0 °F 75% 29.86 in 10.0 mi North 3.5 mph - N/A   Scattered Clouds
9:56 AM 63.0 °F 53.1 °F 70% 29.84 in 10.0 mi North 4.6 mph - N/A   Partly Cloudy
10:56 AM 66.2 °F 55.4 °F 68% 29.84 in 10.0 mi North 6.9 mph - N/A   Partly Cloudy
11:56 AM 66.0 °F 53.1 °F 63% 29.84 in 10.0 mi NW 10.4 mph - N/A   Partly Cloudy
12:56 PM 68.0 °F 53.1 °F 59% 29.83 in 10.0 mi NW 13.8 mph - N/A   Partly Cloudy
1:56 PM 69.1 °F 53.1 °F 57% 29.81 in 10.0 mi NW 18.4 mph - N/A   Partly Cloudy
2:56 PM 69.1 °F 53.1 °F 57% 29.80 in 10.0 mi WNW 17.3 mph - N/A   Partly Cloudy
3:56 PM 66.9 °F 53.1 °F 61% 29.79 in 10.0 mi WNW 18.4 mph 26.5 mph N/A   Partly Cloudy
4:56 PM 68.0 °F 52.0 °F 56% 29.78 in 10.0 mi WNW 17.3 mph - N/A   Partly Cloudy
5:56 PM 64.0 °F 52.0 °F 65% 29.78 in 10.0 mi WNW 20.7 mph 28.8 mph N/A   Partly Cloudy
6:56 PM 62.1 °F 52.0 °F 70% 29.78 in 10.0 mi WNW 16.1 mph - N/A   Partly Cloudy
7:56 PM 60.1 °F 52.0 °F 75% 29.79 in 10.0 mi WNW 13.8 mph - N/A   Partly Cloudy
8:56 PM 57.0 °F 52.0 °F 83% 29.80 in 10.0 mi WNW 13.8 mph - N/A   Partly Cloudy
9:56 PM 57.9 °F 52.0 °F 81% 29.82 in 9.0 mi WNW 9.2 mph - N/A   Clear
10:56 PM 57.2 °F 51.8 °F 82% 29.82 in 10.0 mi WNW 11.5 mph - N/A   Clear
11:56 PM 57.0 °F 52.0 °F 83% 29.81 in 9.0 mi WNW 11.5 mph - N/A   Clear